ITY1354 EDDF-LIML

Flight info

Callsign ITY1354
Flight time 1h 5m
Altitude 36000
Route ANEKI2L/18 ANEKI Y163 NATOR TRA RIPUS GERSA SOSON ODINA ODIN3A
Aircraft A20N/M-SDFGIRWY/LB1

Departure

Time 2026-04-14 15:50
Airport Frankfurt Main Airport (EDDF)

Arrival

Time 2026-04-14 16:55
Airport Milano Linate Airport (LIML)
Time Latitude Longitude Altitude Speed Heading
2026-04-14 15:16 50.04655 8.56808 365 ft 0 kts 294°
2026-04-14 15:36 50.04651 8.56823 363 ft 2 kts 292°
2026-04-14 15:37 50.04644 8.56847 360 ft 2 kts 292°
2026-04-14 15:37 50.04639 8.56871 364 ft 2 kts 275°
2026-04-14 15:37 50.04644 8.56888 365 ft 0 kts 174°
2026-04-14 15:37 50.04646 8.56887 361 ft 0 kts 188°
2026-04-14 15:38 50.04645 8.56887 361 ft 0 kts 188°
2026-04-14 15:41 50.04636 8.56889 367 ft 8 kts 166°
2026-04-14 15:41 50.04571 8.56901 365 ft 7 kts 188°
2026-04-14 15:41 50.04408 8.56847 361 ft 34 kts 188°
2026-04-14 15:42 50.04243 8.56769 366 ft 19 kts 226°
2026-04-14 15:42 50.04186 8.56518 362 ft 32 kts 248°
2026-04-14 15:42 50.04111 8.56212 359 ft 28 kts 249°
2026-04-14 15:42 50.04048 8.55954 353 ft 23 kts 250°
2026-04-14 15:43 50.04001 8.55749 356 ft 18 kts 249°
2026-04-14 15:43 50.03955 8.55557 356 ft 22 kts 249°
2026-04-14 15:43 50.03883 8.55247 356 ft 34 kts 248°
2026-04-14 15:43 50.03804 8.54924 354 ft 30 kts 253°
2026-04-14 15:44 50.03740 8.54654 350 ft 24 kts 247°
2026-04-14 15:44 50.03684 8.54422 355 ft 20 kts 250°
2026-04-14 15:44 50.03636 8.54223 346 ft 23 kts 250°
2026-04-14 15:44 50.03564 8.53920 342 ft 33 kts 249°
2026-04-14 15:45 50.03499 8.53651 336 ft 22 kts 250°
2026-04-14 15:45 50.03449 8.53449 333 ft 17 kts 248°
2026-04-14 15:45 50.03417 8.53309 333 ft 11 kts 248°
2026-04-14 15:45 50.03375 8.53138 334 ft 24 kts 249°
2026-04-14 15:46 50.03330 8.52950 352 ft 10 kts 249°
2026-04-14 15:46 50.03318 8.52865 350 ft 5 kts 282°
2026-04-14 15:46 50.03355 8.52832 350 ft 13 kts 344°
2026-04-14 15:46 50.03396 8.52813 353 ft 0 kts 338°
2026-04-14 15:47 50.03402 8.52809 351 ft 6 kts 334°
2026-04-14 15:48 50.03411 8.52798 353 ft 0 kts 313°
2026-04-14 15:48 50.03417 8.52788 348 ft 0 kts 310°
2026-04-14 15:48 50.03430 8.52746 354 ft 0 kts 276°
2026-04-14 15:48 50.03428 8.52741 355 ft 0 kts 261°
2026-04-14 15:49 50.03414 8.52652 353 ft 15 kts 239°
2026-04-14 15:49 50.03348 8.52595 348 ft 0 kts 181°
2026-04-14 15:49 50.03322 8.52594 351 ft 26 kts 180°
2026-04-14 15:49 50.02810 8.52602 351 ft 121 kts 180°
2026-04-14 15:50 50.01681 8.52625 477 ft 195 kts 178°
2026-04-14 15:50 50.00271 8.52897 1699 ft 200 kts 159°
2026-04-14 15:50 49.98991 8.53687 2851 ft 197 kts 156°
2026-04-14 15:50 49.97658 8.54497 3265 ft 206 kts 159°
2026-04-14 15:51 49.96273 8.55154 3631 ft 210 kts 165°
2026-04-14 15:51 49.94831 8.55561 3851 ft 211 kts 172°
2026-04-14 15:51 49.93362 8.55759 3936 ft 211 kts 176°
2026-04-14 15:51 49.91895 8.55800 3983 ft 211 kts 180°
2026-04-14 15:52 49.90433 8.55740 3998 ft 210 kts 182°
2026-04-14 15:52 49.88985 8.55619 4009 ft 211 kts 183°
2026-04-14 15:52 49.87528 8.55456 4012 ft 210 kts 184°
2026-04-14 15:52 49.86082 8.55271 4015 ft 209 kts 185°
2026-04-14 15:53 49.84616 8.55074 4016 ft 210 kts 185°
2026-04-14 15:53 49.83161 8.54871 4008 ft 210 kts 185°
2026-04-14 15:53 49.81716 8.54669 4111 ft 213 kts 185°
2026-04-14 15:53 49.80131 8.54452 4380 ft 240 kts 184°
2026-04-14 15:54 49.76587 8.54001 6535 ft 270 kts 183°
2026-04-14 15:54 49.74697 8.53766 7741 ft 278 kts 184°
2026-04-14 15:54 49.72761 8.53538 9190 ft 278 kts 184°
2026-04-14 15:55 49.70840 8.53319 10612 ft 280 kts 185°
2026-04-14 15:55 49.68817 8.53071 11394 ft 302 kts 186°
2026-04-14 15:55 49.66654 8.52790 12166 ft 322 kts 186°
2026-04-14 15:55 49.64316 8.52478 12681 ft 351 kts 186°
2026-04-14 15:56 49.61781 8.52136 12976 ft 381 kts 186°
2026-04-14 15:56 49.59122 8.51779 13098 ft 383 kts 186°
2026-04-14 15:56 49.56493 8.51431 13144 ft 383 kts 186°
2026-04-14 15:56 49.53839 8.51078 13169 ft 383 kts 186°
2026-04-14 15:57 49.51211 8.50729 13172 ft 382 kts 186°
2026-04-14 15:57 49.48565 8.50377 13176 ft 382 kts 186°
2026-04-14 15:57 49.45887 8.50016 13182 ft 383 kts 186°
2026-04-14 15:57 49.43265 8.49663 13180 ft 382 kts 186°
2026-04-14 15:58 49.40613 8.49303 13184 ft 383 kts 186°
2026-04-14 15:58 49.37956 8.48940 13184 ft 383 kts 186°
2026-04-14 15:58 49.35297 8.48611 13225 ft 383 kts 183°
2026-04-14 15:58 49.32626 8.48657 13782 ft 385 kts 178°
2026-04-14 15:59 49.29933 8.48922 14758 ft 389 kts 176°
2026-04-14 15:59 49.27219 8.49292 15761 ft 395 kts 175°
2026-04-14 15:59 49.24461 8.49732 16731 ft 402 kts 174°
2026-04-14 15:59 49.21664 8.50220 17686 ft 408 kts 174°
2026-04-14 16:00 49.18810 8.50747 18620 ft 414 kts 174°
2026-04-14 16:00 49.15946 8.51294 19454 ft 418 kts 173°
2026-04-14 16:00 49.13041 8.51860 20284 ft 423 kts 173°
2026-04-14 16:00 49.10115 8.52436 21102 ft 427 kts 173°
2026-04-14 16:01 49.07153 8.53021 21909 ft 431 kts 174°
2026-04-14 16:01 49.04158 8.53612 22701 ft 436 kts 174°
2026-04-14 16:01 49.01150 8.54199 23482 ft 440 kts 174°
2026-04-14 16:01 48.98085 8.54807 24231 ft 441 kts 174°
2026-04-14 16:02 48.95051 8.55419 24720 ft 450 kts 174°
2026-04-14 16:02 48.91937 8.56049 25308 ft 454 kts 174°
2026-04-14 16:02 48.88929 8.56656 25861 ft 459 kts 173°
2026-04-14 16:02 48.85741 8.57296 26434 ft 464 kts 173°
2026-04-14 16:03 48.82524 8.57940 27071 ft 466 kts 173°
2026-04-14 16:03 48.79320 8.58580 27875 ft 465 kts 173°
2026-04-14 16:03 48.76103 8.59220 28643 ft 465 kts 173°
2026-04-14 16:03 48.72893 8.59857 29423 ft 464 kts 173°
2026-04-14 16:04 48.69682 8.60491 30162 ft 464 kts 173°
2026-04-14 16:04 48.66482 8.61123 30791 ft 464 kts 173°
2026-04-14 16:04 48.63272 8.61756 31383 ft 465 kts 173°
2026-04-14 16:04 48.60064 8.62389 31984 ft 465 kts 173°
2026-04-14 16:05 48.56857 8.63020 32601 ft 465 kts 173°
2026-04-14 16:05 48.53649 8.63650 33195 ft 465 kts 173°
2026-04-14 16:05 48.50434 8.64280 33791 ft 466 kts 173°
2026-04-14 16:05 48.47259 8.64902 34354 ft 465 kts 173°
2026-04-14 16:06 48.44040 8.65531 34851 ft 465 kts 173°
2026-04-14 16:06 48.40828 8.66158 35336 ft 465 kts 173°
2026-04-14 16:06 48.37619 8.66783 35778 ft 462 kts 173°
2026-04-14 16:06 48.34455 8.67399 36018 ft 457 kts 173°
2026-04-14 16:07 48.31300 8.68011 36123 ft 461 kts 173°
2026-04-14 16:07 48.24881 8.69255 36186 ft 467 kts 173°
2026-04-14 16:08 48.18464 8.70495 36196 ft 462 kts 173°
2026-04-14 16:08 48.12082 8.71725 36197 ft 462 kts 173°
2026-04-14 16:09 48.05703 8.72951 36196 ft 463 kts 173°
2026-04-14 16:09 47.99328 8.74174 36194 ft 461 kts 173°
2026-04-14 16:10 47.92974 8.75388 36187 ft 460 kts 173°
2026-04-14 16:10 47.86651 8.76594 36188 ft 461 kts 173°
2026-04-14 16:11 47.80283 8.77805 36187 ft 460 kts 173°
2026-04-14 16:11 47.75267 8.78756 36186 ft 459 kts 173°
2026-04-14 16:12 47.71662 8.79438 36189 ft 460 kts 173°
2026-04-14 16:12 47.65333 8.80631 36188 ft 457 kts 173°
2026-04-14 16:13 47.59020 8.81897 36187 ft 458 kts 172°
2026-04-14 16:13 47.52714 8.83330 36185 ft 458 kts 171°
2026-04-14 16:14 47.46842 8.84711 36185 ft 456 kts 171°
2026-04-14 16:14 47.40566 8.86198 36186 ft 457 kts 171°
2026-04-14 16:14 47.37476 8.86928 36187 ft 440 kts 171°
2026-04-14 16:15 47.34506 8.87630 36012 ft 426 kts 171°
2026-04-14 16:15 47.31574 8.88296 35276 ft 425 kts 173°
2026-04-14 16:15 47.28689 8.88855 34732 ft 419 kts 174°
2026-04-14 16:15 47.25819 8.89344 34179 ft 413 kts 174°
2026-04-14 16:16 47.22967 8.89785 33704 ft 406 kts 175°
2026-04-14 16:16 47.20180 8.90183 33399 ft 402 kts 175°
2026-04-14 16:16 47.17398 8.90567 32960 ft 400 kts 175°
2026-04-14 16:16 47.14649 8.90941 32475 ft 395 kts 175°
2026-04-14 16:17 47.12801 8.91190 32208 ft 391 kts 175°
2026-04-14 16:17 47.09231 8.91671 31693 ft 386 kts 175°
2026-04-14 16:17 47.07443 8.91912 31433 ft 383 kts 175°
2026-04-14 16:17 47.04825 8.92267 31057 ft 380 kts 174°
2026-04-14 16:18 47.02171 8.92628 30681 ft 376 kts 174°
2026-04-14 16:18 46.99613 8.92977 30312 ft 373 kts 174°
2026-04-14 16:18 46.97040 8.93329 29839 ft 371 kts 174°
2026-04-14 16:18 46.94466 8.93685 29281 ft 369 kts 174°
2026-04-14 16:19 46.91923 8.94037 28717 ft 366 kts 174°
2026-04-14 16:19 46.89391 8.94388 28168 ft 362 kts 174°
2026-04-14 16:19 46.86892 8.94733 27622 ft 359 kts 174°
2026-04-14 16:19 46.84414 8.95074 27099 ft 356 kts 174°
2026-04-14 16:20 46.81954 8.95411 26579 ft 354 kts 174°
2026-04-14 16:20 46.79503 8.95747 26061 ft 352 kts 174°
2026-04-14 16:20 46.77107 8.96074 25573 ft 349 kts 175°
2026-04-14 16:20 46.74694 8.96404 25081 ft 347 kts 175°
2026-04-14 16:21 46.72295 8.96730 24591 ft 345 kts 175°
2026-04-14 16:21 46.69916 8.97053 24110 ft 343 kts 175°
2026-04-14 16:21 46.67515 8.97377 23630 ft 341 kts 175°
2026-04-14 16:21 46.65200 8.97688 23086 ft 339 kts 175°
2026-04-14 16:22 46.63025 8.97973 22622 ft 334 kts 175°
2026-04-14 16:22 46.60657 8.98279 22046 ft 343 kts 175°
2026-04-14 16:22 46.58329 8.98588 21858 ft 329 kts 175°
2026-04-14 16:22 46.56041 8.98897 21148 ft 331 kts 175°
2026-04-14 16:23 46.53746 8.99207 20558 ft 328 kts 175°
2026-04-14 16:23 46.51481 8.99513 19977 ft 326 kts 174°
2026-04-14 16:23 46.49233 8.99817 19415 ft 324 kts 174°
2026-04-14 16:23 46.46988 9.00120 18854 ft 322 kts 174°
2026-04-14 16:24 46.44773 9.00418 18435 ft 319 kts 174°
2026-04-14 16:24 46.42609 9.00709 18202 ft 316 kts 174°
2026-04-14 16:24 46.40419 9.01003 18095 ft 316 kts 174°
2026-04-14 16:24 46.38222 9.01299 18061 ft 317 kts 174°
2026-04-14 16:25 46.36022 9.01595 18008 ft 317 kts 174°
2026-04-14 16:25 46.33828 9.01890 17626 ft 315 kts 174°
2026-04-14 16:25 46.31650 9.02182 17026 ft 314 kts 174°
2026-04-14 16:25 46.29481 9.02471 16469 ft 311 kts 174°
2026-04-14 16:26 46.27351 9.02754 15916 ft 308 kts 174°
2026-04-14 16:26 46.25218 9.03038 15435 ft 307 kts 174°
2026-04-14 16:26 46.23099 9.03321 15187 ft 303 kts 174°
2026-04-14 16:26 46.21011 9.03600 15085 ft 302 kts 174°
2026-04-14 16:27 46.18909 9.03887 15072 ft 303 kts 173°
2026-04-14 16:27 46.16810 9.04193 15050 ft 303 kts 173°
2026-04-14 16:27 46.14729 9.04504 15012 ft 301 kts 173°
2026-04-14 16:27 46.12636 9.04829 15001 ft 302 kts 173°
2026-04-14 16:28 46.10685 9.05139 14995 ft 303 kts 172°
2026-04-14 16:28 46.08587 9.05477 14992 ft 303 kts 172°
2026-04-14 16:28 46.06524 9.05812 14994 ft 303 kts 172°
2026-04-14 16:28 46.04427 9.06155 15000 ft 303 kts 172°
2026-04-14 16:29 46.02327 9.06492 14995 ft 303 kts 173°
2026-04-14 16:29 46.00232 9.06727 14996 ft 304 kts 175°
2026-04-14 16:29 45.98115 9.06876 14998 ft 304 kts 176°
2026-04-14 16:29 45.95996 9.06976 14841 ft 303 kts 177°
2026-04-14 16:30 45.93884 9.07047 14326 ft 302 kts 178°
2026-04-14 16:30 45.91785 9.07097 13841 ft 299 kts 178°
2026-04-14 16:30 45.89715 9.07135 13284 ft 297 kts 178°
2026-04-14 16:30 45.87685 9.07165 12732 ft 295 kts 178°
2026-04-14 16:31 45.85652 9.07191 12207 ft 291 kts 178°
2026-04-14 16:31 45.83625 9.07214 11685 ft 289 kts 178°
2026-04-14 16:31 45.81623 9.07235 11177 ft 287 kts 178°
2026-04-14 16:31 45.79638 9.07252 10695 ft 284 kts 178°
2026-04-14 16:32 45.77650 9.07266 10317 ft 285 kts 177°
2026-04-14 16:32 45.75698 9.07278 10131 ft 280 kts 177°
2026-04-14 16:32 45.73750 9.07292 9800 ft 276 kts 177°
2026-04-14 16:32 45.71882 9.07304 9626 ft 262 kts 177°
2026-04-14 16:33 45.70103 9.07313 9446 ft 249 kts 177°
2026-04-14 16:33 45.68412 9.07325 9251 ft 238 kts 176°
2026-04-14 16:33 45.66764 9.07337 8896 ft 236 kts 176°
2026-04-14 16:33 45.65125 9.07350 8517 ft 234 kts 176°
2026-04-14 16:34 45.63498 9.07361 8139 ft 233 kts 176°
2026-04-14 16:34 45.61878 9.07375 7757 ft 232 kts 176°
2026-04-14 16:34 45.60270 9.07387 7416 ft 230 kts 176°
2026-04-14 16:34 45.58668 9.07400 7060 ft 229 kts 175°
2026-04-14 16:35 45.57082 9.07410 6728 ft 228 kts 175°
2026-04-14 16:35 45.55528 9.07415 6381 ft 226 kts 175°
2026-04-14 16:35 45.53955 9.07425 6031 ft 225 kts 175°
2026-04-14 16:35 45.52398 9.07442 5709 ft 223 kts 175°
2026-04-14 16:36 45.50860 9.07455 5448 ft 220 kts 175°
2026-04-14 16:36 45.49332 9.07468 5217 ft 220 kts 175°
2026-04-14 16:36 45.47831 9.07480 5126 ft 218 kts 175°
2026-04-14 16:36 45.46313 9.07492 5070 ft 219 kts 174°
2026-04-14 16:37 45.44793 9.07504 5030 ft 218 kts 174°
2026-04-14 16:37 45.43266 9.07513 5019 ft 219 kts 174°
2026-04-14 16:37 45.41745 9.07526 5010 ft 220 kts 174°
2026-04-14 16:37 45.40215 9.07535 5004 ft 220 kts 174°
2026-04-14 16:38 45.38683 9.07537 5011 ft 219 kts 173°
2026-04-14 16:38 45.37155 9.07543 5036 ft 221 kts 173°
2026-04-14 16:38 45.35618 9.07553 5014 ft 220 kts 173°
2026-04-14 16:38 45.34093 9.07565 5007 ft 222 kts 172°
2026-04-14 16:39 45.32563 9.07581 5003 ft 220 kts 172°
2026-04-14 16:39 45.31035 9.07593 5019 ft 221 kts 172°
2026-04-14 16:39 45.29495 9.07603 5004 ft 221 kts 172°
2026-04-14 16:39 45.27958 9.07613 4992 ft 222 kts 172°
2026-04-14 16:40 45.26416 9.07622 4997 ft 221 kts 172°
2026-04-14 16:40 45.24856 9.07636 5001 ft 221 kts 172°
2026-04-14 16:40 45.23338 9.07652 4999 ft 222 kts 172°
2026-04-14 16:40 45.21791 9.07664 4999 ft 221 kts 171°
2026-04-14 16:41 45.20252 9.07674 4999 ft 221 kts 171°
2026-04-14 16:41 45.18711 9.07689 4992 ft 222 kts 171°
2026-04-14 16:41 45.17165 9.07702 4995 ft 222 kts 171°
2026-04-14 16:41 45.15625 9.07713 4998 ft 220 kts 171°
2026-04-14 16:42 45.14119 9.07722 4997 ft 220 kts 171°
2026-04-14 16:42 45.12566 9.07736 5003 ft 219 kts 171°
2026-04-14 16:42 45.11045 9.07745 5001 ft 220 kts 171°
2026-04-14 16:42 45.09507 9.07756 5010 ft 222 kts 171°
2026-04-14 16:43 45.07984 9.07770 5005 ft 220 kts 171°
2026-04-14 16:43 45.06451 9.07781 5004 ft 221 kts 171°
2026-04-14 16:43 45.04908 9.07794 4999 ft 221 kts 171°
2026-04-14 16:43 45.03374 9.07809 5000 ft 220 kts 171°
2026-04-14 16:44 45.01847 9.07824 5004 ft 220 kts 172°
2026-04-14 16:44 45.00313 9.07838 4998 ft 221 kts 172°
2026-04-14 16:44 44.98780 9.07915 4998 ft 216 kts 158°
2026-04-14 16:45 44.97503 9.10808 4819 ft 191 kts 66°
2026-04-14 16:45 44.98436 9.12182 4371 ft 200 kts 42°
2026-04-14 16:45 44.99561 9.13349 4020 ft 200 kts 43°
2026-04-14 16:45 45.00635 9.14556 3755 ft 194 kts 48°
2026-04-14 16:46 45.01576 9.15873 3489 ft 185 kts 53°
2026-04-14 16:46 45.02398 9.17288 3234 ft 186 kts 59°
2026-04-14 16:46 45.03127 9.18797 3129 ft 185 kts 63°
2026-04-14 16:46 45.03770 9.20351 3062 ft 180 kts 66°
2026-04-14 16:47 45.04385 9.21897 3032 ft 182 kts 59°
2026-04-14 16:47 45.05356 9.23088 3009 ft 188 kts 43°
2026-04-14 16:47 45.06431 9.24171 2996 ft 189 kts 42°
2026-04-14 16:47 45.07510 9.25218 3000 ft 191 kts 41°
2026-04-14 16:48 45.08629 9.26241 3000 ft 192 kts 39°
2026-04-14 16:48 45.09774 9.27215 3000 ft 192 kts 37°
2026-04-14 16:48 45.10954 9.28148 2993 ft 194 kts 36°
2026-04-14 16:48 45.12154 9.29003 2988 ft 195 kts 34°
2026-04-14 16:49 45.13405 9.29768 2993 ft 197 kts 27°
2026-04-14 16:49 45.14738 9.30280 3000 ft 201 kts 18°
2026-04-14 16:49 45.16150 9.30412 3009 ft 208 kts
2026-04-14 16:49 45.17592 9.30367 3003 ft 208 kts
2026-04-14 16:50 45.19035 9.30333 2995 ft 211 kts
2026-04-14 16:50 45.20516 9.30265 2998 ft 210 kts
2026-04-14 16:50 45.21966 9.30157 3009 ft 211 kts
2026-04-14 16:50 45.23428 9.30009 3014 ft 211 kts
2026-04-14 16:51 45.24895 9.29839 3014 ft 210 kts
2026-04-14 16:51 45.26340 9.29663 3011 ft 209 kts
2026-04-14 16:51 45.27812 9.29488 3007 ft 213 kts
2026-04-14 16:51 45.29283 9.29328 3016 ft 208 kts
2026-04-14 16:52 45.30659 9.29176 3007 ft 196 kts
2026-04-14 16:52 45.32013 9.29053 2860 ft 193 kts
2026-04-14 16:52 45.33309 9.28916 2620 ft 185 kts
2026-04-14 16:52 45.34602 9.28780 2370 ft 186 kts
2026-04-14 16:53 45.35831 9.28642 2106 ft 162 kts
2026-04-14 16:53 45.36876 9.28510 1864 ft 146 kts
2026-04-14 16:53 45.37873 9.28418 1639 ft 144 kts
2026-04-14 16:53 45.38880 9.28314 1401 ft 143 kts 359°
2026-04-14 16:54 45.39878 9.28218 1173 ft 145 kts 358°
2026-04-14 16:54 45.40917 9.28109 849 ft 152 kts 359°
2026-04-14 16:54 45.41947 9.28005 635 ft 149 kts 357°
2026-04-14 16:54 45.42976 9.27882 461 ft 150 kts 356°
2026-04-14 16:55 45.44011 9.27763 361 ft 141 kts 357°
2026-04-14 16:55 45.44739 9.27684 360 ft 69 kts 355°
2026-04-14 16:55 45.45148 9.27639 356 ft 48 kts 355°
2026-04-14 16:55 45.45387 9.27711 360 ft 27 kts 30°
2026-04-14 16:56 45.45472 9.27801 360 ft 10 kts 30°
2026-04-14 16:56 45.45587 9.27815 361 ft 21 kts
2026-04-14 16:56 45.45714 9.27818 361 ft 16 kts 358°
2026-04-14 16:56 45.45764 9.27818 361 ft 2 kts
2026-04-14 16:57 45.45848 9.27822 361 ft 13 kts
2026-04-14 16:57 45.45900 9.27872 360 ft 7 kts 63°
2026-04-14 16:57 45.45935 9.27911 360 ft 5 kts 11°
2026-04-14 16:57 45.45976 9.27910 366 ft 0 kts
2026-04-14 16:58 45.45979 9.27910 365 ft 0 kts